| time (UTC) | temp F | wind direction | speed MPH | gust MPH | rain 1hr in | rain 24hr in | rain mn in | humidity % | barometer mb |
| 20260504232833 | 71 | 90 | 3.0 | 11.0 | 0.00 | 0.00 | 0.00 | 64 | 1001.2 |
| 20260504232328 | 72 | 120 | 4.0 | 13.0 | 0.00 | 0.00 | 0.00 | 62 | 1001.2 |
| 20260504231822 | 72 | 287 | 5.0 | 15.0 | 0.00 | 0.00 | 0.00 | 63 | 1001.3 |
| 20260504231335 | 72 | 218 | 6.0 | 15.0 | 0.00 | 0.00 | 0.00 | 61 | 1001.3 |
| 20260504230828 | 73 | 239 | 3.0 | 17.0 | 0.00 | 0.00 | 0.00 | 61 | 1001.3 |
| 20260504230319 | 73 | 229 | 10.0 | 20.0 | 0.00 | 0.00 | 0.00 | 60 | 1001.4 |
| 20260504225832 | 73 | 206 | 6.0 | 20.0 | 0.00 | 0.00 | 0.00 | 60 | 1001.6 |
| 20260504225323 | 73 | 243 | 8.0 | 20.0 | 0.00 | 0.00 | 0.00 | 58 | 1001.6 |
| 20260504224814 | 73 | 208 | 7.0 | 21.0 | 0.00 | 0.00 | 0.00 | 58 | 1001.6 |
| 20260504224328 | 73 | 210 | 8.0 | 21.0 | 0.00 | 0.00 | 0.00 | 58 | 1001.8 |
| 20260504223828 | 73 | 285 | 8.0 | 21.0 | 0.00 | 0.00 | 0.00 | 57 | 1001.8 |
| 20260504223318 | 74 | 229 | 8.0 | 21.0 | 0.00 | 0.00 | 0.00 | 56 | 1001.8 |
| 20260504222850 | 74 | 257 | 7.0 | 19.0 | 0.00 | 0.00 | 0.00 | 55 | 1002.0 |
| 20260504222323 | 74 | 162 | 9.0 | 21.0 | 0.00 | 0.00 | 0.00 | 54 | 1002.0 |
| 20260504221834 | 74 | 222 | 11.0 | 21.0 | 0.00 | 0.00 | 0.00 | 54 | 1001.9 |
| 20260504221327 | 74 | 289 | 7.0 | 19.0 | 0.00 | 0.00 | 0.00 | 55 | 1001.8 |
| 20260504220820 | 74 | 220 | 9.0 | 21.0 | 0.00 | 0.00 | 0.00 | 53 | 1001.8 |
| 20260504220313 | 75 | 278 | 10.0 | 21.0 | 0.00 | 0.00 | 0.00 | 53 | 1001.8 |
| 20260504215827 | 75 | 258 | 10.0 | 22.0 | 0.00 | 0.00 | 0.00 | 53 | 1001.8 |
| 20260504215346 | 75 | 206 | 9.0 | 22.0 | 0.00 | 0.00 | 0.00 | 53 | 1001.8 |
| 20260504214819 | 75 | 266 | 10.0 | 25.0 | 0.00 | 0.00 | 0.00 | 53 | 1001.8 |
| 20260504214333 | 75 | 224 | 9.0 | 25.0 | 0.00 | 0.00 | 0.00 | 53 | 1001.9 |
| 20260504213847 | 75 | 339 | 11.0 | 28.0 | 0.00 | 0.00 | 0.00 | 52 | 1001.7 |
| 20260504213322 | 76 | 276 | 12.0 | 28.0 | 0.00 | 0.00 | 0.00 | 52 | 1001.8 |
| 20260504212816 | 76 | 285 | 10.0 | 19.0 | 0.00 | 0.00 | 0.00 | 52 | 1001.6 |
| 20260504212330 | 77 | 257 | 7.0 | 18.0 | 0.00 | 0.00 | 0.00 | 52 | 1001.6 |
| 20260504211841 | 76 | 240 | 9.0 | 18.0 | 0.00 | 0.00 | 0.00 | 52 | 1001.6 |
| 20260504211331 | 76 | 233 | 8.0 | 23.0 | 0.00 | 0.00 | 0.00 | 53 | 1001.6 |
| 20260504210848 | 76 | 235 | 9.0 | 23.0 | 0.00 | 0.00 | 0.00 | 52 | 1001.5 |
| 20260504210321 | 76 | 259 | 7.0 | 19.0 | 0.00 | 0.00 | 0.00 | 53 | 1001.5 |
| 20260504205832 | 76 | 307 | 11.0 | 18.0 | 0.00 | 0.00 | 0.00 | 52 | 1001.4 |
| 20260504205322 | 76 | 194 | 9.0 | 18.0 | 0.00 | 0.00 | 0.00 | 52 | 1001.5 |
| 20260504204816 | 76 | 235 | 12.0 | 20.0 | 0.00 | 0.00 | 0.00 | 51 | 1001.4 |
| 20260504204332 | 77 | 222 | 7.0 | 20.0 | 0.00 | 0.00 | 0.00 | 52 | 1001.5 |
| 20260504203828 | 77 | 250 | 8.0 | 20.0 | 0.00 | 0.00 | 0.00 | 52 | 1001.5 |
| 20260504203322 | 76 | 234 | 9.0 | 20.0 | 0.00 | 0.00 | 0.00 | 54 | 1001.5 |
| 20260504202837 | 76 | 236 | 8.0 | 17.0 | 0.00 | 0.00 | 0.00 | 56 | 1001.5 |
| 20260504202333 | 76 | 285 | 8.0 | 17.0 | 0.00 | 0.00 | 0.00 | 55 | 1001.6 |
| 20260504201844 | 76 | 218 | 9.0 | 20.0 | 0.00 | 0.00 | 0.00 | 54 | 1001.7 |
| 20260504201318 | 76 | 263 | 9.0 | 20.0 | 0.00 | 0.00 | 0.00 | 55 | 1001.7 |
| 20260504200831 | 76 | 225 | 6.0 | 19.0 | 0.00 | 0.00 | 0.00 | 55 | 1001.7 |
| 20260504200341 | 77 | 253 | 8.0 | 19.0 | 0.00 | 0.00 | 0.00 | 55 | 1001.6 |
| 20260504195831 | 76 | 255 | 6.0 | 15.0 | 0.00 | 0.00 | 0.00 | 55 | 1001.8 |
| 20260504195325 | 77 | 230 | 6.0 | 19.0 | 0.00 | 0.00 | 0.00 | 56 | 1001.7 |
| 20260504194840 | 76 | 245 | 8.0 | 19.0 | 0.00 | 0.00 | 0.00 | 55 | 1001.8 |
| 20260504194332 | 76 | 243 | 6.0 | 20.0 | 0.00 | 0.00 | 0.00 | 56 | 1002.0 |
| 20260504193824 | 76 | 259 | 7.0 | 20.0 | 0.00 | 0.00 | 0.00 | 56 | 1002.1 |
| 20260504193335 | 76 | 282 | 10.0 | 20.0 | 0.00 | 0.00 | 0.00 | 55 | 1002.1 |
| 20260504192826 | 76 | 172 | 7.0 | 14.0 | 0.00 | 0.00 | 0.00 | 57 | 1002.1 |
| 20260504192321 | 76 | 237 | 4.0 | 14.0 | 0.00 | 0.00 | 0.00 | 58 | 1002.2 |
| 20260504191832 | 75 | 243 | 7.0 | 15.0 | 0.00 | 0.00 | 0.00 | 58 | 1002.2 |
| 20260504191343 | 75 | 221 | 5.0 | 15.0 | 0.00 | 0.00 | 0.00 | 60 | 1002.4 |
| 20260504190816 | 75 | 35 | 8.0 | 15.0 | 0.00 | 0.00 | 0.00 | 57 | 1002.4 |
| 20260504190313 | 74 | 171 | 7.0 | 15.0 | 0.00 | 0.00 | 0.00 | 61 | 1002.5 |
| 20260504185827 | 74 | 256 | 6.0 | 15.0 | 0.00 | 0.00 | 0.00 | 60 | 1002.4 |
| 20260504185338 | 75 | 245 | 4.0 | 14.0 | 0.00 | 0.00 | 0.00 | 61 | 1002.6 |
| 20260504184828 | 74 | 228 | 7.0 | 18.0 | 0.00 | 0.00 | 0.00 | 62 | 1002.5 |
| 20260504184342 | 74 | 226 | 7.0 | 18.0 | 0.00 | 0.00 | 0.00 | 58 | 1002.7 |
| 20260504183817 | 75 | 236 | 7.0 | 16.0 | 0.00 | 0.00 | 0.00 | 62 | 1002.8 |
| 20260504183328 | 75 | 182 | 7.0 | 14.0 | 0.00 | 0.00 | 0.00 | 59 | 1002.9 |
| 20260504182822 | 75 | 228 | 6.0 | 14.0 | 0.00 | 0.00 | 0.00 | 59 | 1002.9 |
| 20260504182356 | 74 | 172 | 4.0 | 13.0 | 0.00 | 0.00 | 0.00 | 63 | 1002.8 |
| 20260504181826 | 73 | 237 | 6.0 | 18.0 | 0.00 | 0.00 | 0.00 | 61 | 1002.8 |
| 20260504181317 | 73 | 64 | 7.0 | 18.0 | 0.00 | 0.00 | 0.00 | 61 | 1003.1 |
| 20260504180829 | 73 | 244 | 7.0 | 17.0 | 0.00 | 0.00 | 0.00 | 62 | 1003.1 |
| 20260504180325 | 74 | 170 | 6.0 | 11.0 | 0.00 | 0.00 | 0.00 | 61 | 1003.1 |
| 20260504175819 | 73 | 256 | 4.0 | 11.0 | 0.00 | 0.00 | 0.00 | 65 | 1003.1 |
| 20260504175337 | 72 | 226 | 5.0 | 13.0 | 0.00 | 0.00 | 0.00 | 63 | 1003.2 |
| 20260504174830 | 72 | 282 | 5.0 | 13.0 | 0.00 | 0.00 | 0.00 | 63 | 1003.3 |
| 20260504174321 | 71 | 252 | 3.0 | 17.0 | 0.00 | 0.00 | 0.00 | 65 | 1003.4 |
| 20260504173833 | 71 | 206 | 4.0 | 17.0 | 0.00 | 0.00 | 0.00 | 62 | 1003.5 |
| 20260504173324 | 72 | 250 | 6.0 | 11.0 | 0.00 | 0.00 | 0.00 | 60 | 1003.5 |
| 20260504172835 | 72 | 253 | 4.0 | 10.0 | 0.00 | 0.00 | 0.00 | 66 | 1003.5 |
| 20260504172326 | 72 | 282 | 4.0 | 10.0 | 0.00 | 0.00 | 0.00 | 63 | 1003.5 |
| 20260504171816 | 72 | 247 | 5.0 | 12.0 | 0.00 | 0.00 | 0.00 | 63 | 1003.7 |
| 20260504171330 | 72 | 249 | 6.0 | 12.0 | 0.00 | 0.00 | 0.00 | 63 | 1003.7 |
| 20260504170826 | 71 | 242 | 4.0 | 13.0 | 0.00 | 0.00 | 0.00 | 63 | 1003.8 |
| 20260504170317 | 71 | 262 | 4.0 | 15.0 | 0.00 | 0.00 | 0.00 | 63 | 1003.9 |
| 20260504160343 | 70 | 224 | 4.0 | 12.0 | 0.00 | 0.00 | 0.00 | 59 | 1004.7 |
| 20260504150843 | 67 | 260 | 5.0 | 9.0 | 0.00 | 0.00 | 0.00 | 65 | 1005.3 |
| 20260504150316 | 66 | 239 | 3.0 | 9.0 | 0.00 | 0.00 | 0.00 | 67 | 1005.3 |
| 20260504141322 | 63 | 233 | 3.0 | 9.0 | 0.00 | 0.00 | 0.00 | 71 | 1005.8 |
| 20260504140817 | 62 | 268 | 2.0 | 9.0 | 0.00 | 0.00 | 0.00 | 72 | 1005.8 |
| 20260504140348 | 62 | 244 | 3.0 | 9.0 | 0.00 | 0.00 | 0.00 | 71 | 1005.8 |
| 20260504130817 | 58 | 291 | 2.0 | 6.0 | 0.00 | 0.00 | 0.00 | 76 | 1006.1 |
| 20260504130328 | 57 | 250 | 3.0 | 8.0 | 0.00 | 0.00 | 0.00 | 76 | 1006.1 |
| 20260504120317 | 53 | 265 | 2.0 | 5.0 | 0.00 | 0.00 | 0.00 | 79 | 1006.3 |
| 20260504110329 | 51 | 234 | 2.0 | 9.0 | 0.00 | 0.00 | 0.00 | 81 | 1006.4 |
| 20260504100327 | 51 | 239 | 2.0 | 7.0 | 0.00 | 0.00 | 0.00 | 80 | 1006.2 |
| 20260504081833 | 49 | 239 | 1.0 | 4.0 | 0.00 | 0.00 | 0.00 | 83 | 1006.3 |
| 20260504081324 | 49 | 328 | 1.0 | 4.0 | 0.00 | 0.00 | 0.00 | 83 | 1006.4 |
| 20260504080836 | 49 | 183 | 1.0 | 4.0 | 0.00 | 0.00 | 0.00 | 82 | 1006.5 |
| 20260504080327 | 49 | 71 | 1.0 | 4.0 | 0.00 | 0.00 | 0.00 | 83 | 1006.6 |
| 20260504070334 | 49 | 245 | 0.0 | 3.0 | 0.00 | 0.00 | 0.00 | 83 | 1007.4 |
| 20260504050357 | 49 | 125 | 1.0 | 2.0 | 0.00 | 0.00 | 0.00 | 84 | 1008.8 |
| 20260504045831 | 49 | 120 | 1.0 | 1.0 | 0.00 | 0.00 | 0.00 | 84 | 1008.9 |
| 20260504045321 | 49 | 125 | 0.0 | 2.0 | 0.00 | 0.00 | 0.00 | 84 | 1008.8 |
| 20260504044815 | 49 | 148 | 0.0 | 3.0 | 0.00 | 0.00 | 0.00 | 84 | 1008.9 |
| 20260504044329 | 49 | 150 | 1.0 | 3.0 | 0.00 | 0.00 | 0.00 | 84 | 1008.9 |
| 20260504043843 | 49 | 132 | 0.0 | 3.0 | 0.00 | 0.00 | 0.00 | 84 | 1008.9 |
| 20260504043335 | 49 | 119 | 0.0 | 3.0 | 0.00 | 0.00 | 0.00 | 84 | 1008.9 |
| 20260504042827 | 49 | 138 | 1.0 | 3.0 | 0.00 | 0.00 | 0.00 | 84 | 1008.8 |
| 20260504042318 | 49 | 41 | 1.0 | 3.0 | 0.00 | 0.00 | 0.00 | 85 | 1008.8 |
| 20260504041849 | 49 | 108 | 1.0 | 3.0 | 0.00 | 0.00 | 0.00 | 85 | 1008.8 |
| 20260504041325 | 49 | 171 | 0.0 | 3.0 | 0.00 | 0.00 | 0.00 | 85 | 1008.8 |
| 20260504040818 | 48 | 167 | 1.0 | 3.0 | 0.00 | 0.00 | 0.00 | 85 | 1008.8 |
| 20260504040328 | 48 | 143 | 1.0 | 3.0 | 0.00 | 0.00 | 0.00 | 85 | 1008.9 |
| 20260504035819 | 48 | 151 | 0.0 | 3.0 | 0.00 | 0.00 | 0.00 | 85 | 1008.9 |
| 20260504035330 | 48 | 240 | 1.0 | 3.0 | 0.00 | 0.00 | 0.00 | 85 | 1009.0 |
| 20260504034821 | 48 | 139 | 0.0 | 2.0 | 0.00 | 0.00 | 0.00 | 85 | 1009.1 |
| 20260504034336 | 49 | 147 | 1.0 | 2.0 | 0.00 | 0.00 | 0.00 | 85 | 1009.2 |
| 20260504033849 | 49 | 156 | 0.0 | 2.0 | 0.00 | 0.00 | 0.00 | 84 | 1009.2 |
| 20260504033322 | 49 | 141 | 1.0 | 3.0 | 0.00 | 0.00 | 0.00 | 85 | 1009.2 |
| 20260504032837 | 49 | 121 | 1.0 | 4.0 | 0.00 | 0.00 | 0.00 | 85 | 1009.2 |
| 20260504032347 | 49 | 157 | 1.0 | 4.0 | 0.00 | 0.00 | 0.00 | 85 | 1009.3 |
| 20260504031817 | 49 | 157 | 1.0 | 3.0 | 0.00 | 0.00 | 0.00 | 85 | 1009.4 |
| 20260504031329 | 49 | 114 | 1.0 | 5.0 | 0.00 | 0.00 | 0.00 | 84 | 1009.4 |
| 20260504030820 | 49 | 145 | 1.0 | 5.0 | 0.00 | 0.00 | 0.00 | 84 | 1009.4 |
| 20260504030351 | 49 | 182 | 2.0 | 5.0 | 0.00 | 0.00 | 0.00 | 85 | 1009.4 |
| 20260504025820 | 49 | 172 | 1.0 | 4.0 | 0.00 | 0.00 | 0.00 | 84 | 1009.4 |
| 20260504025331 | 49 | 141 | 1.0 | 3.0 | 0.00 | 0.00 | 0.00 | 85 | 1009.4 |
| 20260504024822 | 49 | 184 | 2.0 | 3.0 | 0.00 | 0.00 | 0.00 | 85 | 1009.5 |
| 20260504024333 | 49 | 154 | 1.0 | 4.0 | 0.00 | 0.00 | 0.00 | 85 | 1009.5 |
| 20260504023830 | 49 | 162 | 2.0 | 4.0 | 0.00 | 0.00 | 0.00 | 85 | 1009.5 |
| 20260504023320 | 49 | 158 | 2.0 | 3.0 | 0.00 | 0.00 | 0.00 | 85 | 1009.5 |
| 20260504022851 | 49 | 149 | 1.0 | 3.0 | 0.00 | 0.00 | 0.00 | 85 | 1009.5 |
| 20260504022321 | 49 | 195 | 1.0 | 3.0 | 0.00 | 0.00 | 0.00 | 85 | 1009.5 |
| 20260504021832 | 49 | 113 | 0.0 | 4.0 | 0.00 | 0.00 | 0.00 | 84 | 1009.5 |
| 20260504021323 | 49 | 162 | 1.0 | 4.0 | 0.00 | 0.00 | 0.00 | 84 | 1009.5 |
| 20260504020837 | 49 | 137 | 2.0 | 4.0 | 0.00 | 0.00 | 0.00 | 84 | 1009.5 |
| 20260504020329 | 49 | 174 | 2.0 | 4.0 | 0.00 | 0.00 | 0.00 | 84 | 1009.5 |
| 20260504015820 | 49 | 157 | 1.0 | 4.0 | 0.00 | 0.00 | 0.00 | 84 | 1009.5 |
| 20260504015331 | 49 | 156 | 2.0 | 4.0 | 0.00 | 0.00 | 0.00 | 84 | 1009.5 |
| 20260504014826 | 49 | 165 | 2.0 | 3.0 | 0.00 | 0.00 | 0.00 | 84 | 1009.5 |
| 20260504014317 | 50 | 133 | 1.0 | 3.0 | 0.00 | 0.00 | 0.00 | 84 | 1009.5 |
| 20260504013830 | 50 | 154 | 1.0 | 3.0 | 0.00 | 0.00 | 0.00 | 84 | 1009.6 |
| 20260504013320 | 50 | 162 | 1.0 | 4.0 | 0.00 | 0.00 | 0.00 | 84 | 1009.6 |
| 20260504012830 | 50 | 158 | 2.0 | 4.0 | 0.00 | 0.00 | 0.00 | 83 | 1009.6 |
| 20260504012324 | 50 | 164 | 2.0 | 4.0 | 0.00 | 0.00 | 0.00 | 83 | 1009.6 |
| 20260504011818 | 50 | 120 | 2.0 | 5.0 | 0.00 | 0.00 | 0.00 | 83 | 1009.6 |
| 20260504011332 | 50 | 158 | 2.0 | 5.0 | 0.00 | 0.00 | 0.00 | 83 | 1009.6 |
| 20260504010828 | 50 | 135 | 2.0 | 4.0 | 0.00 | 0.00 | 0.00 | 83 | 1009.5 |
| 20260504010321 | 50 | 160 | 2.0 | 4.0 | 0.00 | 0.00 | 0.00 | 83 | 1009.6 |
| 20260504005836 | 50 | 161 | 2.0 | 4.0 | 0.00 | 0.00 | 0.00 | 83 | 1009.5 |
| 20260504005346 | 50 | 150 | 2.0 | 3.0 | 0.00 | 0.00 | 0.00 | 83 | 1009.5 |
| 20260504004816 | 51 | 162 | 2.0 | 4.0 | 0.00 | 0.00 | 0.00 | 82 | 1009.6 |
| 20260504004327 | 51 | 144 | 2.0 | 4.0 | 0.00 | 0.00 | 0.00 | 82 | 1009.6 |
| 20260504003822 | 51 | 154 | 2.0 | 4.0 | 0.00 | 0.00 | 0.00 | 81 | 1009.6 |
| 20260504003335 | 51 | 158 | 2.0 | 4.0 | 0.00 | 0.00 | 0.00 | 81 | 1009.7 |
| 20260504002847 | 51 | 187 | 2.0 | 4.0 | 0.00 | 0.00 | 0.00 | 81 | 1009.7 |
| 20260504002321 | 52 | 191 | 2.0 | 4.0 | 0.00 | 0.00 | 0.00 | 80 | 1009.8 |
| 20260504001855 | 52 | 154 | 2.0 | 5.0 | 0.00 | 0.00 | 0.00 | 80 | 1009.8 |
| 20260504001325 | 52 | 149 | 1.0 | 5.0 | 0.00 | 0.00 | 0.00 | 80 | 1009.8 |
| 20260504000839 | 52 | 176 | 2.0 | 6.0 | 0.00 | 0.00 | 0.00 | 80 | 1009.8 |
| 20260504000328 | 52 | 156 | 3.0 | 6.0 | 0.00 | 0.00 | 0.00 | 79 | 1010.0 |
| 20260503235819 | 52 | 147 | 2.0 | 4.0 | 0.00 | 0.00 | 0.00 | 80 | 1010.1 |
| 20260503235330 | 52 | 134 | 2.0 | 3.0 | 0.00 | 0.00 | 0.00 | 80 | 1010.2 |
| 20260503234824 | 52 | 161 | 1.0 | 7.0 | 0.00 | 0.00 | 0.00 | 79 | 1010.1 |
| 20260503234318 | 52 | 166 | 2.0 | 7.0 | 0.00 | 0.00 | 0.00 | 79 | 1010.1 |
| 20260503233817 | 52 | 156 | 3.0 | 7.0 | 0.00 | 0.00 | 0.00 | 78 | 1010.1 |
| 20260503233327 | 53 | 170 | 2.0 | 7.0 | 0.00 | 0.00 | 0.00 | 78 | 1010.2 |